www.pogodaiklimat.ru

Погода и климат >> Архив погоды >> Мьянма >> Тандве


ПОГОДА в Тандве

  • Прогноз погоды в Тандве
  • Монитор погоды в Тандве

АРХИВ ПОГОДЫ в Тандве

Время (UTC), дата Ветер
(напр.,м/с)
 
Видим.   Явления Облачность Т
(С)
Тd
(С)
f
(%)
Тe
(С)
Тes
(С)
Комфортность P
(гПа)
Po
(гПа)
Тmin
(С)
Tmax
(С)
R
(мм)
R24
(мм)
S
(см)
09 9.06 ЮЗ 4 10 км 8/5 600 м
[Cb cap Ac As]
+32.5 +27.5 75 +52 +54 опасность
перегрева
1004.0 1002.8
12 9.06 штиль 0 6000 м {морось} 9/6 300 м
[Cb cap Ac As]
+29.0 +25.9 83 +43 +43 опасность
перегрева
1003.0 1001.8 +33.5 15
15 9.06 ЮЗ 1 5000 м {морось} 10/6 300 м
[Cb cap Ac As]
+27.0 +25.6 92 +40 +40 очень
душно
1004.4 1003.1
00 10.06 штиль 0 6000 м {дождь, морось} 10/5 300 м
[Cu Sc Ac As]
+26.0 +24.6 92 +37 +37 очень
душно
1003.4 1002.1 +22.1 1
03 10.06 ЮЗ 1 10 км 5/4 600 м
[Cu Sc Ac As]
+32.0 +24.8 66 +45 +54 опасность
перегрева
1002.4 1001.2
06 10.06 ЮЗ 3 12 км 5/4 600 м
[Cb cap Ac As]
+34.0 +25.7 62 +49 +59 опасность
перегрева
1002.8 1001.6
09 10.06 ЮЗ 4 12 км 6/4 600 м
[Cb cap Ac As]
+33.5 +27.0 69 +52 +55 опасность
перегрева
1001.2 1000.0
12 10.06 штиль 0 6000 м гроза, ливневой дождь 10/6 300 м
[Cu Sc Ac As]
+27.0 +25.6 92 +40 +40 очень
душно
1002.6 1001.3 +34.5 9
15 10.06 штиль 0 5000 м {гроза, морось} 10/6 300 м
[Cu Sc Ac As]
+27.0 +25.6 92 +40 +40 очень
душно
1003.8 1002.5
00 11.06 штиль 0 6000 м 8/5 600 м
[Cu Sc Ac As]
+25.5 +24.6 95 +36 +36 очень
душно
1002.3 1001.0 +22.4
06 11.06 ЮЗ 4 10 км слаб. морось {дождь} 10/6 600 м
[Frnb As op]
+27.0 +25.6 92 +40 +41 очень
душно
1002.8 1001.5
09 11.06 ЮВ 2 10 км дождь {морось} 10/6 600 м
[Frnb As op]
+27.0 +25.6 92 +40 +41 очень
душно
1001.4 1000.1
12 11.06 ЮВ 1 6000 м {морось} 10/6 300 м
[Cu Sc Ac As]
+28.0 +25.0 84 +40 +40 очень
душно
1001.0 999.8 +31.5 6
15 11.06 штиль 0 5000 м 9/6 300 м
[Cu Sc Ac As]
+27.0 +25.6 92 +40 +40 очень
душно
1001.3 1000.0
03 12.06 штиль 0 10 км 9/6 600 м
[Cu Sc Ac As]
+28.0 +25.0 84 +40 +44 очень
душно
1001.8 1000.6
06 12.06 ЮЗ 4 10 км 9/6 600 м
[Cu Sc Ac As]
+32.5 +27.5 75 +52 +55 опасность
перегрева
1001.1 999.9
09 12.06 ЮЗ 2 8000 м слаб. дождь 10/6 300 м
[Frnb As op]
+25.5 +25.5 100 +37 +38 очень
душно
1001.0 999.7
12 12.06 штиль 0 6000 м слаб. морось {дождь} 10/6 300 м
[Cu Sc Ac As]
+25.5 +24.6 95 +36 +36 очень
душно
1000.1 998.8 +32.8 116
15 12.06 штиль 0 5000 м слаб. морось {дождь} 10/6 300 м
[Frnb As op]
+25.0 +25.0 100 +36 +36 очень
душно
1002.1 1000.8
00 13.06 штиль 0 5000 м гроза, ливневой дождь 10/6 300 м
[Cb cap As op]
+25.0 +25.0 100 +36 +36 очень
душно
1001.0 999.7 +21.0 51
03 13.06 З 1 8000 м морось {дождь} 10/6 300 м
[Frnb As op]
+25.5 +25.5 100 +37 +38 очень
душно
1003.1 1001.8
06 13.06 ЮЗ 2 8000 м слаб. морось {дождь} 10/6 300 м
[Frnb Ac As]
+26.0 +26.0 100 +39 +41 очень
душно
1003.0 1001.7
09 13.06 ЮЗ 1 8000 м слаб. морось {дождь} 10/6 300 м
[Frnb Ac As]
+26.0 +24.6 92 +37 +38 очень
душно
1001.5 1000.2
12 13.06 штиль 0 6000 м {дождь, морось} 10/6 300 м
[Cu Sc Ac As]
+25.5 +24.6 95 +36 +36 очень
душно
1001.0 999.7 +28.4 62
15 13.06 штиль 0 5000 м слаб. морось 10/6 300 м
[Frnb Ac As]
+25.0 +25.0 100 +36 +36 очень
душно
1002.8 1001.5
00 14.06 ЮЗ 3 6000 м слаб. дождь 10/6 200 м
[Frnb As op]
+25.5 +25.5 100 +37 +37 очень
душно
1003.0 1001.7 +21.0 50
03 14.06 ЮЗ 1 8000 м {дождь} 10/6 300 м
[Cu Sc Ac As]
+28.0 +26.8 93 +44 +45 опасность
перегрева
1004.3 1003.0
06 14.06 ЮЗ 3 10 км слаб. морось 9/6 600 м
[Cu Sc Ac As]
+31.5 +28.1 82 +52 +55 опасность
перегрева
1004.2 1003.0
09 14.06 ЮЗ 5 6000 м гроза, ливневой дождь 10/6 300 м
[Cb cap Ac As]
+25.5 +25.5 100 +37 +38 очень
душно
1002.8 1001.5
12 14.06 штиль 0 6000 м морось {гроза, дождь} 10/6 300 м
[Frnb Ac As]
+25.0 +25.0 100 +36 +36 очень
душно
1002.5 1001.2 +31.8 42
15 14.06 штиль 0 5000 м {дождь, морось} 10/6 300 м
[Cu Sc Ac As]
+25.0 +25.0 100 +36 +36 очень
душно
1004.1 1002.8
00 15.06 штиль 0 6000 м сильн. морось {гроза, дождь} 10/6 300 м
[Frnb Ac As]
+25.0 +25.0 100 +36 +36 очень
душно
1004.0 1002.7 +20.9 42
03 15.06 ЮЗ 1 10 км {морось} 9/5 300 м
[Cu Sc Ac As]
+29.0 +25.9 83
06 15.06 ЮЗ 2 10 км слаб. морось {дождь} 10/6 300 м
[Frnb Ac As]
+28.0 +26.8 93 +44 +46 опасность
перегрева
1005.2 1003.9
09 15.06 ЮЗ 3 10 км слаб. морось {дождь} 10/6 300 м
[Cu Sc Ac As]
+25.0 +23.3 90 +33 +35 очень
душно
1004.0 1002.7
12 15.06 штиль 0 6000 м морось {дождь} 10/6 300 м
[Frnb Ac As]
+26.0 +26.0 100 +39 +39 очень
душно
1004.2 1002.9 +31.0 42
15 15.06 штиль 0 5000 м слаб. морось {дождь} 10/6 300 м
[Frnb Ac As]
+24.5 +23.3 93 +33 +33 очень
душно
1004.2 1002.9
00 16.06 штиль 0 6000 м гроза, ливневой дождь 10/6 300 м
[Cb cap As op]
+24.8 +24.8 100 +35 +35 очень
душно
1003.4 1002.1 +21.6 18
03 16.06 штиль 0 10 км слаб. дождь {гроза} 10/6 300 м
[Frnb As op]
+25.0 +25.0 100 +36 +37 очень
душно
1005.2 1003.9
06 16.06 ЮЗ 2 10 км слаб. морось {дождь} 10/6 300 м
[Frnb Ac As]
+26.0 +26.0 100 +39 +41 очень
душно
1004.5 1003.2

 

Местоположение метеостанции Тандве (Мьянма): широта 18.47 долгота 94.35 высота над уровнем моря 11 м.

В архиве по умолчанию представлена погода в Тандве за последнюю неделю. Архивные данные за месяц целиком и за предыдущие месяцы, начиная с января 2011 года, Вы можете получить, выбрав интересующий диапазон дат из раскрывающегося списка и нажав кнопку "Ввод!".


*Определитесь, кто Вы:
робот инопланетянин человек

Внимание! Время в таблицах - всемирное. Для получения местного времени необходимо прибавить поправку, которая равна 6.5 ч.

Смотрите также архив погоды в соседних городах и на ближайших метеорологических станциях:

Погода в Манаунге (Мьянма) (78 км)
Погода в Проме (Мьянма) (99 км)
Погода в Гва (Мьянма) (102 км)
Погода в Кяокпю (Мьянма) (135 км)
Погода в Хинтаде (Мьянма) (144 км)
Погода в Бассейне (Мьянма) (194 км)
Погода в Минбу (Мьянма) (197 км)
Погода в Магуэе (Мьянма) (197 км)
Погода в Таунгу (Мьянма) (229 км)
Погода в Хмавби (Мьянма) (234 км)

Пояснения к столбцам:

Ветер - указаны скорость ветра в м/с - средняя за 10 мин, порывы в срок и между сроками (в фигурных скобках) и направление, откуда дует ветер: С - северный, СВ - северо-восточный, В - восточный, ЮВ - юго-восточный, Ю - южный, ЮЗ - юго-западный, З - западный, СЗ - северо-западный.
Видимость - горизонтальная дальность видимости в метрах или километрах. При видимости от 1 до 10 км при отсутствии осадков обычно наблюдается дымка, при ухудшении видимости до 1 км и менее - туман. В сухую погоду видимость может ухудшаться дымом, пылью или мглою.
Явления - указаны атмосферные явления, наблюдавшиеся в срок или в последний час перед сроком; фигурными скобками обозначены явления, наблюдавшиеся между сроками (за 1-3 часа до срока); квадратными скобками обозначены град или гололедные отложения с указанием их диаметра в мм.
Облачность - указаны через наклонную черту общая и нижняя облачность в баллах и высота нижней границы облаков в метрах; квадратными скобками обозначены формы облаков: Ci - перистые, Cs - перисто-слоистые, Cc - перисто-кучевые, Ac - высококучевые, As - высокослоистые, Sc - слоисто-кучевые, Ns - слоисто-дождевые, Cu - кучевые, Cb - кучево-дождевые. Подробнее классификацию облаков см. в Атласе облаков (PDF).
T - Температура воздуха - температура, измеренная на высоте 2 м над землей.
Td - Температура точки росы - температура, при понижении до которой содержащийся в воздухе водяной пар достигнет насыщения.
f - Относительная влажность воздуха - влажноcть воздуха, измеренная на высоте 2 м над землей.
Te - Эффективная температура - температура, которую ощущает одетый по сезону человек в тени. Характеристика душности погоды. При расчете учитывается влияние влажности воздуха и скорости ветра на теплоощущения человека.
Tes - Эффективная температура на солнце - температура, которую ощущает человек, с поправкой на солнечный нагрев. Характеристика знойности погоды. Зависит от высоты солнца над горизонтом, облачности и скорости ветра. Ночью, в пасмурную погоду, а также при ветре 12 м/с и более поправка равна нулю.
P - Атмосферное давление - приведенное к уровню моря атмосферное давление.
Po - Атмосферное давление - измеренное на уровне метеостанции атмосферное давление.
Tmin - Минимальная температура - минимум температуры воздуха на высоте 2 м над землей.
Tmax - Максимальная температура - максимум температуры воздуха на высоте 2 м над землей.
R - Количество осадков - Количество выпавших осадков за период времени, мм. При наведении курсора мыши на число - период времени, за который выпало указанное количество осадков.
R24 - Количество осадков - Количество выпавших осадков за 24 часа, мм.
S - Снежный покров - Высота снежного покрова, см. При наведении курсора мыши на число - состояние снежного покрова и степень покрытия местности в баллах.